Weather History for KABQ - June, 2014

Change the Weather History Date:

Saturday, June 7, 2014

  Actual Average Record
Temperature  
Mean Temperature 77 °F 73 °F  
Max Temperature 90 °F 86 °F 100 °F (1981)
Min Temperature 64 °F 59 °F 40 °F (1917)
Degree Days  
Heating Degree Days 0 0  
Month to date heating degree days 0 0  
Since 1 June heating degree days 0 0  
Since 1 July heating degree days 3980 4175  
Cooling Degree Days 12 8  
Month to date cooling degree days 95 49  
Year to date cooling degree days 207 147  
Since 1 June cooling degree days 95 49  
Growing Degree Days 28 (Base 50)    
Moisture  
Dew Point 47 °F    
Average Humidity 39    
Maximum Humidity 63    
Minimum Humidity 15    
Precipitation  
Precipitation 0.00 in 0.01 in 0.84 in (1903)
Month to date precipitation 0.00 0.10  
Year to date precipitation 1.01 2.64  
Snow  
Snow 0.00 in - - ()
Month to date snowfall 0.0  
Since 1 June snowfall 0.0  
Since 1 July snowfall 6.6  
Snow Depth 0.00 in    
Sea Level Pressure  
Sea Level Pressure 29.70 in    
Wind  
Wind Speed 21 mph (ESE)    
Max Wind Speed 48 mph    
Max Gust Speed 56 mph    
Visibility 10 miles    
Events      
T = Trace of Precipitation, MM = Missing Value Source: NWS Daily Summary

Daily Weather History Graph

Daily Weather History Graph

Search for Another Location

Airport or City:

Trip Planner

Search our weather history database for the weather conditions in past years. The results will help you decide how hot, cold, wet, or windy it might be!

Date:

Astronomy

Jun. 07, 2014 Rise Set
Actual Time 5:52 AM MDT 8:18 PM MDT
Civil Twilight 5:22 AM MDT 8:48 PM MDT
Nautical Twilight 4:46 AM MDT 9:24 PM MDT
Astronomical Twilight 4:06 AM MDT 10:04 PM MDT
Moon 2:50 PM MDT (6/7) 2:02 AM MDT (6/7)
Length of Visible Light 15h 25m
Length of Day
14h 26m
Waxing Gibbous, 68% of the Moon is Illuminated
Jun 7
Waxing Gibbous
Jun 12
Full
Jun 19
Last Quarter
Jun 27
New
Jul 5
First Quarter

Hourly Weather History & Observations

Time (MDT) Temp. Dew Point Humidity Pressure Visibility Wind Dir Wind Speed Gust Speed Precip Events Conditions
12:52 AM 70.0 °F 19.9 °F 15% 29.63 in 10.0 mi ESE 8.1 mph - N/A   Clear
1:52 AM 69.1 °F 37.0 °F 31% 29.65 in 10.0 mi South 9.2 mph - N/A   Clear
2:52 AM 64.0 °F 37.0 °F 37% 29.66 in 10.0 mi ESE 4.6 mph - N/A   Partly Cloudy
3:52 AM 69.1 °F 52.0 °F 54% 29.65 in 10.0 mi East 16.1 mph 28.8 mph N/A   Scattered Clouds
4:52 AM 68.0 °F 52.0 °F 56% 29.66 in 10.0 mi East 26.5 mph 36.8 mph N/A   Partly Cloudy
5:52 AM 66.9 °F 53.1 °F 61% 29.69 in 10.0 mi East 23.0 mph 32.2 mph N/A   Partly Cloudy
6:52 AM 66.9 °F 53.1 °F 61% 29.71 in 10.0 mi East 21.9 mph - N/A   Partly Cloudy
7:52 AM 70.0 °F 54.0 °F 57% 29.73 in 10.0 mi East 23.0 mph 28.8 mph N/A   Partly Cloudy
8:52 AM 72.0 °F 55.0 °F 55% 29.76 in 10.0 mi East 25.3 mph 31.1 mph N/A   Partly Cloudy
9:52 AM 75.9 °F 54.0 °F 46% 29.76 in 10.0 mi East 21.9 mph 31.1 mph N/A   Partly Cloudy
10:52 AM 79.0 °F 52.0 °F 39% 29.76 in 10.0 mi East 26.5 mph 31.1 mph N/A   Partly Cloudy
11:52 AM 81.0 °F 51.1 °F 35% 29.75 in 10.0 mi East 17.3 mph 29.9 mph N/A   Scattered Clouds
12:52 PM 82.9 °F 50.0 °F 32% 29.75 in 10.0 mi ESE 18.4 mph 26.5 mph N/A   Scattered Clouds
1:52 PM 84.0 °F 48.0 °F 28% 29.72 in 10.0 mi ESE 16.1 mph 24.2 mph N/A   Scattered Clouds
2:52 PM 84.9 °F 46.0 °F 26% 29.71 in 10.0 mi South 13.8 mph 23.0 mph N/A   Scattered Clouds
3:52 PM 87.1 °F 42.1 °F 21% 29.66 in 10.0 mi SSW 8.1 mph 18.4 mph N/A   Scattered Clouds
4:52 PM 90.0 °F 48.0 °F 24% 29.62 in 10.0 mi SE 25.3 mph 31.1 mph N/A   Partly Cloudy
5:52 PM 87.1 °F 46.9 °F 25% 29.62 in 10.0 mi SE 20.7 mph - N/A   Partly Cloudy
6:52 PM 86.0 °F 48.0 °F 27% 29.62 in 10.0 mi ESE 19.6 mph - N/A   Partly Cloudy
7:52 PM 81.0 °F 48.0 °F 31% 29.65 in 10.0 mi East 13.8 mph - N/A   Partly Cloudy
8:52 PM 75.9 °F 44.1 °F 32% 29.68 in 10.0 mi East 32.2 mph 42.6 mph N/A   Partly Cloudy
9:16 PM 73.0 °F 43.0 °F 34% 29.93 in 6.0 mi East 32.2 mph 51.8 mph N/A   Widespread Dust
9:52 PM 71.1 °F 44.1 °F 38% 29.69 in 10.0 mi East 39.1 mph 47.2 mph N/A   Scattered Clouds
10:52 PM 69.1 °F 43.0 °F 39% 29.71 in 10.0 mi East 36.8 mph 50.6 mph N/A   Partly Cloudy
11:52 PM 68.0 °F 44.1 °F 42% 29.76 in 10.0 mi East 26.5 mph 38.0 mph N/A   Partly Cloudy